Time,TemperatureF,DewpointF,PressureIn,WindDirection,WindDirectionDegrees,WindSpeedMPH,WindSpeedGustMPH,Humidity,HourlyPrecipIn,Conditions,Clouds,dailyrainin,SolarRadiationWatts/m^2,SoftwareType,DateUTC
2013-01-14 00:00:00,10.0,2.4,-100.00,WSW,246,9.6,15.9,70,0.00,,,-99.99,1.0,HOBO +U30 +Weather +,2013-01-14 07:00:00,
2013-01-14 00:05:00,10.2,2.7,-100.00,WSW,241,7.4,13.0,71,0.00,,,-99.99,1.0,HOBO +U30 +Weather +,2013-01-14 07:05:00,
2013-01-14 00:10:00,10.3,2.6,-100.00,SW,236,7.4,15.9,70,0.00,,,-99.99,1.0,HOBO +U30 +Weather +,2013-01-14 07:10:00,
2013-01-14 00:15:00,10.2,2.5,-100.00,WSW,246,9.6,14.1,70,0.00,,,-99.99,1.0,HOBO +U30 +Weather +,2013-01-14 07:15:00,
2013-01-14 00:20:00,10.4,2.7,-100.00,WSW,243,7.4,13.0,70,0.00,,,-99.99,1.0,HOBO +U30 +Weather +,2013-01-14 07:20:00,
2013-01-14 00:25:00,10.3,2.6,-100.00,WSW,247,9.6,15.2,70,0.00,,,-99.99,1.0,HOBO +U30 +Weather +,2013-01-14 07:25:00,
2013-01-14 00:30:00,10.5,2.8,-100.00,WSW,250,9.6,15.2,70,0.00,,,-99.99,1.0,HOBO +U30 +Weather +,2013-01-14 07:30:00,
2013-01-14 00:35:00,10.6,3.0,-100.00,WSW,250,7.8,12.3,70,0.00,,,-99.99,1.0,HOBO +U30 +Weather +,2013-01-14 07:35:00,
2013-01-14 00:40:00,10.4,2.7,-100.00,WSW,248,11.2,15.9,70,0.00,,,-99.99,1.0,HOBO +U30 +Weather +,2013-01-14 07:40:00,
2013-01-14 00:45:00,10.5,2.9,-100.00,WSW,246,11.2,17.4,70,0.00,,,-99.99,1.0,HOBO +U30 +Weather +,2013-01-14 07:45:00,
2013-01-14 00:50:00,10.6,3.0,-100.00,WSW,247,11.9,19.2,70,0.00,,,-99.99,1.0,HOBO +U30 +Weather +,2013-01-14 07:50:00,
2013-01-14 00:55:00,10.6,3.1,-100.00,WSW,244,10.1,17.0,71,0.00,,,-99.99,1.0,HOBO +U30 +Weather +,2013-01-14 07:55:00,
2013-01-14 01:00:00,10.6,3.2,-100.00,WSW,256,10.1,17.4,71,0.00,,,-99.99,1.0,HOBO +U30 +Weather +,2013-01-14 08:00:00,
2013-01-14 01:05:00,10.6,3.3,-100.00,West,264,8.9,16.3,71,0.00,,,-99.99,1.0,HOBO +U30 +Weather +,2013-01-14 08:05:00,
2013-01-14 01:10:00,10.5,3.2,-100.00,West,260,9.6,15.9,71,0.00,,,-99.99,1.0,HOBO +U30 +Weather +,2013-01-14 08:10:00,
2013-01-14 01:15:00,10.6,3.3,-100.00,WSW,254,12.3,17.0,71,0.00,,,-99.99,1.0,HOBO +U30 +Weather +,2013-01-14 08:15:00,
2013-01-14 01:20:00,10.6,3.3,-100.00,WSW,253,11.2,17.0,71,0.00,,,-99.99,1.0,HOBO +U30 +Weather +,2013-01-14 08:20:00,
2013-01-14 01:25:00,10.8,3.5,-100.00,WSW,253,10.7,17.0,72,0.00,,,-99.99,1.0,HOBO +U30 +Weather +,2013-01-14 08:25:00,
2013-01-14 01:30:00,10.8,3.5,-100.00,WSW,246,12.3,17.4,71,0.00,,,-99.99,1.0,HOBO +U30 +Weather +,2013-01-14 08:30:00,
2013-01-14 01:35:00,10.8,3.6,-100.00,WSW,253,11.2,18.1,72,0.00,,,-99.99,1.0,HOBO +U30 +Weather +,2013-01-14 08:35:00,
2013-01-14 01:40:00,10.7,3.5,-100.00,WSW,248,12.3,18.1,72,0.00,,,-99.99,1.0,HOBO +U30 +Weather +,2013-01-14 08:40:00,
2013-01-14 01:45:00,10.8,3.5,-100.00,WSW,250,12.3,17.4,72,0.00,,,-99.99,1.0,HOBO +U30 +Weather +,2013-01-14 08:45:00,
2013-01-14 01:50:00,10.8,3.6,-100.00,WSW,248,13.0,17.4,72,0.00,,,-99.99,1.0,HOBO +U30 +Weather +,2013-01-14 08:50:00,
2013-01-14 01:55:00,11.0,3.5,-100.00,WSW,247,10.7,18.1,71,0.00,,,-99.99,1.0,HOBO +U30 +Weather +,2013-01-14 08:55:00,
2013-01-14 02:00:00,11.2,3.7,-100.00,WSW,243,8.5,14.5,71,0.00,,,-99.99,1.0,HOBO +U30 +Weather +,2013-01-14 09:00:00,
2013-01-14 02:05:00,11.1,3.5,-100.00,WSW,243,10.1,16.3,71,0.00,,,-99.99,1.0,HOBO +U30 +Weather +,2013-01-14 09:05:00,
2013-01-14 02:10:00,11.2,3.6,-100.00,WSW,248,9.6,14.5,71,0.00,,,-99.99,1.0,HOBO +U30 +Weather +,2013-01-14 09:10:00,
2013-01-14 02:15:00,11.2,3.7,-100.00,WSW,243,9.6,17.0,71,0.00,,,-99.99,1.0,HOBO +U30 +Weather +,2013-01-14 09:15:00,
2013-01-14 02:20:00,11.3,3.5,-100.00,WSW,246,8.5,13.4,70,0.00,,,-99.99,1.0,HOBO +U30 +Weather +,2013-01-14 09:20:00,
2013-01-14 02:25:00,11.3,3.4,-100.00,SW,233,6.7,10.7,70,0.00,,,-99.99,1.0,HOBO +U30 +Weather +,2013-01-14 09:25:00,
2013-01-14 02:30:00,11.2,3.2,-100.00,SW,236,8.5,12.3,69,0.00,,,-99.99,1.0,HOBO +U30 +Weather +,2013-01-14 09:30:00,
2013-01-14 02:35:00,11.0,3.0,-100.00,WSW,246,8.9,15.2,69,0.00,,,-99.99,1.0,HOBO +U30 +Weather +,2013-01-14 09:35:00,
2013-01-14 02:40:00,11.0,3.1,-100.00,WSW,240,7.4,14.5,69,0.00,,,-99.99,1.0,HOBO +U30 +Weather +,2013-01-14 09:40:00,
2013-01-14 02:45:00,10.9,3.0,-100.00,WSW,243,6.7,13.4,69,0.00,,,-99.99,1.0,HOBO +U30 +Weather +,2013-01-14 09:45:00,
2013-01-14 02:50:00,10.8,2.9,-100.00,WSW,244,7.4,11.2,70,0.00,,,-99.99,1.0,HOBO +U30 +Weather +,2013-01-14 09:50:00,
2013-01-14 02:55:00,10.7,2.9,-100.00,WSW,244,7.8,14.5,70,0.00,,,-99.99,1.0,HOBO +U30 +Weather +,2013-01-14 09:55:00,
2013-01-14 03:00:00,10.8,3.0,-100.00,SW,230,7.8,14.5,70,0.00,,,-99.99,1.0,HOBO +U30 +Weather +,2013-01-14 10:00:00,
2013-01-14 03:05:00,10.8,2.9,-100.00,SW,236,8.5,14.1,70,0.00,,,-99.99,1.0,HOBO +U30 +Weather +,2013-01-14 10:05:00,
2013-01-14 03:10:00,10.7,2.8,-100.00,SW,234,8.5,17.0,70,0.00,,,-99.99,1.0,HOBO +U30 +Weather +,2013-01-14 10:10:00,
2013-01-14 03:15:00,10.6,2.9,-100.00,SW,225,8.9,16.3,70,0.00,,,-99.99,1.0,HOBO +U30 +Weather +,2013-01-14 10:15:00,
2013-01-14 03:20:00,10.6,2.9,-100.00,SW,222,10.7,17.4,70,0.00,,,-99.99,1.0,HOBO +U30 +Weather +,2013-01-14 10:20:00,
2013-01-14 03:25:00,10.6,3.0,-100.00,SW,232,9.6,17.4,70,0.00,,,-99.99,1.0,HOBO +U30 +Weather +,2013-01-14 10:25:00,
2013-01-14 03:30:00,10.5,2.9,-100.00,SW,229,10.7,19.2,71,0.00,,,-99.99,1.0,HOBO +U30 +Weather +,2013-01-14 10:30:00,
2013-01-14 03:35:00,10.4,2.9,-100.00,SW,232,10.1,17.0,71,0.00,,,-99.99,1.0,HOBO +U30 +Weather +,2013-01-14 10:35:00,
2013-01-14 03:40:00,10.3,2.8,-100.00,SW,234,10.1,17.4,71,0.00,,,-99.99,1.0,HOBO +U30 +Weather +,2013-01-14 10:40:00,
2013-01-14 03:45:00,10.3,2.8,-100.00,SW,234,8.9,16.3,71,0.00,,,-99.99,1.0,HOBO +U30 +Weather +,2013-01-14 10:45:00,
2013-01-14 03:50:00,10.2,2.8,-100.00,WSW,237,10.1,19.7,71,0.00,,,-99.99,1.0,HOBO +U30 +Weather +,2013-01-14 10:50:00,
2013-01-14 03:55:00,10.3,2.9,-100.00,WSW,239,10.1,17.4,71,0.00,,,-99.99,1.0,HOBO +U30 +Weather +,2013-01-14 10:55:00,
2013-01-14 04:00:00,10.3,2.9,-100.00,WSW,240,10.7,18.1,71,0.00,,,-99.99,1.0,HOBO +U30 +Weather +,2013-01-14 11:00:00,
2013-01-14 04:05:00,10.2,2.9,-100.00,SW,230,8.9,13.4,71,0.00,,,-99.99,1.0,HOBO +U30 +Weather +,2013-01-14 11:05:00,
2013-01-14 04:10:00,10.3,3.0,-100.00,SW,236,7.8,12.3,71,0.00,,,-99.99,1.0,HOBO +U30 +Weather +,2013-01-14 11:10:00,
2013-01-14 04:15:00,10.4,3.1,-100.00,WSW,239,9.6,17.4,71,0.00,,,-99.99,1.0,HOBO +U30 +Weather +,2013-01-14 11:15:00,
2013-01-14 04:20:00,10.6,3.2,-100.00,WSW,237,10.1,21.9,71,0.00,,,-99.99,1.0,HOBO +U30 +Weather +,2013-01-14 11:20:00,
2013-01-14 04:25:00,10.5,3.2,-100.00,SW,230,8.5,14.5,71,0.00,,,-99.99,1.0,HOBO +U30 +Weather +,2013-01-14 11:25:00,
2013-01-14 04:30:00,10.4,3.2,-100.00,WSW,240,8.9,16.3,71,0.00,,,-99.99,1.0,HOBO +U30 +Weather +,2013-01-14 11:30:00,
2013-01-14 04:35:00,10.4,3.1,-100.00,WSW,243,8.5,13.4,71,0.00,,,-99.99,1.0,HOBO +U30 +Weather +,2013-01-14 11:35:00,
2013-01-14 04:40:00,10.4,3.1,-100.00,WSW,239,8.5,15.2,71,0.00,,,-99.99,1.0,HOBO +U30 +Weather +,2013-01-14 11:40:00,
2013-01-14 04:45:00,10.5,3.1,-100.00,SW,234,8.9,15.2,71,0.00,,,-99.99,1.0,HOBO +U30 +Weather +,2013-01-14 11:45:00,
2013-01-14 04:50:00,10.5,3.1,-100.00,WSW,239,7.8,15.2,71,0.00,,,-99.99,1.0,HOBO +U30 +Weather +,2013-01-14 11:50:00,
2013-01-14 04:55:00,10.6,3.1,-100.00,SW,229,7.4,13.0,71,0.00,,,-99.99,1.0,HOBO +U30 +Weather +,2013-01-14 11:55:00,
2013-01-14 05:00:00,10.6,3.1,-100.00,SW,229,7.8,15.9,71,0.00,,,-99.99,1.0,HOBO +U30 +Weather +,2013-01-14 12:00:00,
2013-01-14 05:05:00,10.6,2.9,-100.00,SW,230,8.9,15.2,70,0.00,,,-99.99,1.0,HOBO +U30 +Weather +,2013-01-14 12:05:00,
2013-01-14 05:10:00,10.6,2.9,-100.00,SW,227,8.9,18.1,70,0.00,,,-99.99,1.0,HOBO +U30 +Weather +,2013-01-14 12:10:00,
2013-01-14 05:15:00,10.6,2.8,-100.00,SW,230,10.1,16.3,70,0.00,,,-99.99,1.0,HOBO +U30 +Weather +,2013-01-14 12:15:00,
2013-01-14 05:20:00,10.6,2.7,-100.00,SW,232,8.9,15.9,70,0.00,,,-99.99,1.0,HOBO +U30 +Weather +,2013-01-14 12:20:00,
2013-01-14 05:25:00,10.5,2.6,-100.00,SW,234,10.1,16.3,70,0.00,,,-99.99,1.0,HOBO +U30 +Weather +,2013-01-14 12:25:00,
2013-01-14 05:30:00,10.4,2.6,-100.00,SW,236,11.2,18.6,70,0.00,,,-99.99,1.0,HOBO +U30 +Weather +,2013-01-14 12:30:00,
2013-01-14 05:35:00,10.3,2.5,-100.00,SW,230,9.6,15.9,70,0.00,,,-99.99,1.0,HOBO +U30 +Weather +,2013-01-14 12:35:00,
2013-01-14 05:40:00,10.2,2.3,-100.00,SW,229,8.9,14.1,70,0.00,,,-99.99,1.0,HOBO +U30 +Weather +,2013-01-14 12:40:00,
2013-01-14 05:45:00,10.0,2.2,-100.00,WSW,239,10.7,18.1,69,0.00,,,-99.99,1.0,HOBO +U30 +Weather +,2013-01-14 12:45:00,
2013-01-14 05:50:00,9.8,1.9,-100.00,WSW,239,10.1,17.0,69,0.00,,,-99.99,1.0,HOBO +U30 +Weather +,2013-01-14 12:50:00,
2013-01-14 05:55:00,9.6,1.8,-100.00,WSW,240,9.6,15.9,69,0.00,,,-99.99,1.0,HOBO +U30 +Weather +,2013-01-14 12:55:00,
2013-01-14 06:00:00,9.5,1.7,-100.00,SW,232,8.5,15.9,70,0.00,,,-99.99,1.0,HOBO +U30 +Weather +,2013-01-14 13:00:00,
2013-01-14 06:05:00,9.3,1.6,-100.00,SW,232,9.6,15.2,70,0.00,,,-99.99,1.0,HOBO +U30 +Weather +,2013-01-14 13:05:00,
2013-01-14 06:10:00,9.2,1.7,-100.00,SW,227,8.9,15.9,70,0.00,,,-99.99,1.0,HOBO +U30 +Weather +,2013-01-14 13:10:00,
2013-01-14 06:15:00,9.1,1.5,-100.00,SW,229,8.5,16.3,70,0.00,,,-99.99,1.0,HOBO +U30 +Weather +,2013-01-14 13:15:00,
2013-01-14 06:20:00,9.1,1.5,-100.00,SW,229,7.4,12.3,70,0.00,,,-99.99,1.0,HOBO +U30 +Weather +,2013-01-14 13:20:00,
2013-01-14 06:25:00,8.9,1.3,-100.00,SW,230,9.6,17.0,70,0.00,,,-99.99,1.0,HOBO +U30 +Weather +,2013-01-14 13:25:00,
2013-01-14 06:30:00,9.0,1.4,-100.00,SW,222,8.9,17.4,70,0.00,,,-99.99,1.0,HOBO +U30 +Weather +,2013-01-14 13:30:00,
2013-01-14 06:35:00,9.0,1.3,-100.00,SW,232,9.6,19.7,70,0.00,,,-99.99,1.0,HOBO +U30 +Weather +,2013-01-14 13:35:00,
2013-01-14 06:40:00,8.9,1.2,-100.00,SW,234,10.7,19.2,70,0.00,,,-99.99,1.0,HOBO +U30 +Weather +,2013-01-14 13:40:00,
2013-01-14 06:50:00,8.8,1.1,-100.00,WSW,239,9.6,16.3,70,0.00,,,-99.99,1.0,HOBO +U30 +Weather +,2013-01-14 13:50:00,
2013-01-14 06:55:00,8.6,1.0,-100.00,SW,229,10.1,17.0,70,0.00,,,-99.99,1.0,HOBO +U30 +Weather +,2013-01-14 13:55:00,
2013-01-14 07:00:00,8.6,1.0,-100.00,SW,233,8.9,22.6,70,0.00,,,-99.99,1.0,HOBO +U30 +Weather +,2013-01-14 14:00:00,
2013-01-14 07:05:00,8.4,0.8,-100.00,WSW,240,11.9,18.6,70,0.00,,,-99.99,1.0,HOBO +U30 +Weather +,2013-01-14 14:05:00,
2013-01-14 07:10:00,8.3,0.9,-100.00,SW,234,11.2,20.8,71,0.00,,,-99.99,1.0,HOBO +U30 +Weather +,2013-01-14 14:10:00,
2013-01-14 07:15:00,8.2,0.8,-100.00,WSW,240,11.2,19.7,71,0.00,,,-99.99,1.0,HOBO +U30 +Weather +,2013-01-14 14:15:00,
2013-01-14 07:20:00,8.1,0.6,-100.00,SW,233,11.2,19.2,71,0.00,,,-99.99,1.0,HOBO +U30 +Weather +,2013-01-14 14:20:00,
2013-01-14 07:25:00,8.0,0.6,-100.00,SW,236,11.9,22.6,71,0.00,,,-99.99,1.0,HOBO +U30 +Weather +,2013-01-14 14:25:00,
2013-01-14 07:30:00,8.2,0.8,-100.00,WSW,240,10.7,20.4,71,0.00,,,-99.99,1.0,HOBO +U30 +Weather +,2013-01-14 14:30:00,
2013-01-14 07:35:00,8.1,0.7,-100.00,WSW,239,13.0,20.8,71,0.00,,,-99.99,1.0,HOBO +U30 +Weather +,2013-01-14 14:35:00,
2013-01-14 07:40:00,8.2,0.8,-100.00,SW,236,13.0,21.5,71,0.00,,,-99.99,2.0,HOBO +U30 +Weather +,2013-01-14 14:40:00,
2013-01-14 07:45:00,8.2,0.7,-100.00,SW,233,12.3,21.9,70,0.00,,,-99.99,2.0,HOBO +U30 +Weather +,2013-01-14 14:45:00,
2013-01-14 07:50:00,8.2,0.7,-100.00,SW,236,12.3,18.1,71,0.00,,,-99.99,4.0,HOBO +U30 +Weather +,2013-01-14 14:50:00,
2013-01-14 07:55:00,8.2,0.7,-100.00,SW,236,14.1,22.6,70,0.00,,,-99.99,7.0,HOBO +U30 +Weather +,2013-01-14 14:55:00,
2013-01-14 08:00:00,8.2,0.6,-100.00,SW,229,14.1,22.6,70,0.00,,,-99.99,12.0,HOBO +U30 +Weather +,2013-01-14 15:00:00,
2013-01-14 08:05:00,8.2,0.6,-100.00,SW,236,14.5,22.6,70,0.00,,,-99.99,16.0,HOBO +U30 +Weather +,2013-01-14 15:05:00,
2013-01-14 08:10:00,8.2,0.6,-100.00,SW,230,13.4,23.0,70,0.00,,,-99.99,19.0,HOBO +U30 +Weather +,2013-01-14 15:10:00,
2013-01-14 08:15:00,8.2,0.6,-100.00,SW,229,11.9,21.5,70,0.00,,,-99.99,24.0,HOBO +U30 +Weather +,2013-01-14 15:15:00,
2013-01-14 08:20:00,8.3,0.8,-100.00,SW,227,11.2,18.6,71,0.00,,,-99.99,32.0,HOBO +U30 +Weather +,2013-01-14 15:20:00,
2013-01-14 08:25:00,8.2,0.7,-100.00,SW,234,10.7,19.7,70,0.00,,,-99.99,41.0,HOBO +U30 +Weather +,2013-01-14 15:25:00,
2013-01-14 08:30:00,8.2,0.5,-100.00,SW,233,13.4,21.9,70,0.00,,,-99.99,46.0,HOBO +U30 +Weather +,2013-01-14 15:30:00,
2013-01-14 08:35:00,8.2,0.6,-100.00,SW,234,12.3,19.7,70,0.00,,,-99.99,48.0,HOBO +U30 +Weather +,2013-01-14 15:35:00,
2013-01-14 08:40:00,8.3,0.7,-100.00,SW,229,10.1,15.9,70,0.00,,,-99.99,47.0,HOBO +U30 +Weather +,2013-01-14 15:40:00,
2013-01-14 08:45:00,8.4,0.7,-100.00,SW,232,11.2,19.2,70,0.00,,,-99.99,47.0,HOBO +U30 +Weather +,2013-01-14 15:45:00,
2013-01-14 08:50:00,8.5,0.7,-100.00,SW,232,12.3,20.4,69,0.00,,,-99.99,48.0,HOBO +U30 +Weather +,2013-01-14 15:50:00,
2013-01-14 08:55:00,8.5,0.7,-100.00,SW,230,13.0,19.7,69,0.00,,,-99.99,53.0,HOBO +U30 +Weather +,2013-01-14 15:55:00,
2013-01-14 09:00:00,8.5,0.7,-100.00,SW,234,10.7,17.4,70,0.00,,,-99.99,61.0,HOBO +U30 +Weather +,2013-01-14 16:00:00,
2013-01-14 09:05:00,9.0,1.0,-100.00,SW,229,11.9,21.5,69,0.00,,,-99.99,207.0,HOBO +U30 +Weather +,2013-01-14 16:05:00,
2013-01-14 09:10:00,9.7,1.4,-100.00,SW,220,8.9,15.9,68,0.00,,,-99.99,216.0,HOBO +U30 +Weather +,2013-01-14 16:10:00,
2013-01-14 09:15:00,9.7,1.3,-100.00,SW,218,11.2,17.4,68,0.00,,,-99.99,222.0,HOBO +U30 +Weather +,2013-01-14 16:15:00,
2013-01-14 09:20:00,9.8,1.3,-100.00,SW,229,10.7,19.2,67,0.00,,,-99.99,226.0,HOBO +U30 +Weather +,2013-01-14 16:20:00,
2013-01-14 09:25:00,10.3,1.8,-100.00,SW,229,10.1,18.6,67,0.00,,,-99.99,233.0,HOBO +U30 +Weather +,2013-01-14 16:25:00,
2013-01-14 09:30:00,10.2,1.5,-100.00,SW,223,11.9,23.7,67,0.00,,,-99.99,242.0,HOBO +U30 +Weather +,2013-01-14 16:30:00,
2013-01-14 09:35:00,10.4,1.5,-100.00,SW,229,13.4,21.5,66,0.00,,,-99.99,248.0,HOBO +U30 +Weather +,2013-01-14 16:35:00,
2013-01-14 09:40:00,10.4,1.5,-100.00,SW,226,13.0,20.8,66,0.00,,,-99.99,257.0,HOBO +U30 +Weather +,2013-01-14 16:40:00,
2013-01-14 09:45:00,10.8,1.7,-100.00,SW,227,11.2,22.6,66,0.00,,,-99.99,267.0,HOBO +U30 +Weather +,2013-01-14 16:45:00,
2013-01-14 09:50:00,10.8,1.6,-100.00,SW,233,11.9,18.1,65,0.00,,,-99.99,271.0,HOBO +U30 +Weather +,2013-01-14 16:50:00,
2013-01-14 09:55:00,11.4,2.1,-100.00,SW,223,10.1,17.0,65,0.00,,,-99.99,282.0,HOBO +U30 +Weather +,2013-01-14 16:55:00,
2013-01-14 10:00:00,11.1,1.6,-100.00,SW,226,13.0,25.9,64,0.00,,,-99.99,292.0,HOBO +U30 +Weather +,2013-01-14 17:00:00,
2013-01-14 10:05:00,11.1,1.5,-100.00,SW,233,13.4,23.0,64,0.00,,,-99.99,303.0,HOBO +U30 +Weather +,2013-01-14 17:05:00,
2013-01-14 10:10:00,11.9,2.2,-100.00,SW,227,10.1,18.6,64,0.00,,,-99.99,313.0,HOBO +U30 +Weather +,2013-01-14 17:10:00,
2013-01-14 10:15:00,11.6,1.8,-100.00,SW,232,13.0,23.0,64,0.00,,,-99.99,319.0,HOBO +U30 +Weather +,2013-01-14 17:15:00,
2013-01-14 10:20:00,11.8,2.0,-100.00,SW,225,13.4,22.6,64,0.00,,,-99.99,327.0,HOBO +U30 +Weather +,2013-01-14 17:20:00,
2013-01-14 10:25:00,12.0,2.3,-100.00,SW,219,13.4,18.1,64,0.00,,,-99.99,334.0,HOBO +U30 +Weather +,2013-01-14 17:25:00,
2013-01-14 10:30:00,12.5,2.6,-100.00,SW,219,13.0,19.2,64,0.00,,,-99.99,342.0,HOBO +U30 +Weather +,2013-01-14 17:30:00,
2013-01-14 10:35:00,12.8,2.5,-100.00,SW,222,9.6,15.9,62,0.00,,,-99.99,352.0,HOBO +U30 +Weather +,2013-01-14 17:35:00,
2013-01-14 10:40:00,12.9,2.5,-100.00,SW,233,11.2,20.4,62,0.00,,,-99.99,363.0,HOBO +U30 +Weather +,2013-01-14 17:40:00,
2013-01-14 10:45:00,14.0,3.4,-100.00,SW,222,7.8,14.1,62,0.00,,,-99.99,373.0,HOBO +U30 +Weather +,2013-01-14 17:45:00,
2013-01-14 10:50:00,13.9,3.2,-100.00,SW,227,9.6,15.2,61,0.00,,,-99.99,374.0,HOBO +U30 +Weather +,2013-01-14 17:50:00,
2013-01-14 10:55:00,14.0,3.4,-100.00,SW,223,11.2,17.0,61,0.00,,,-99.99,383.0,HOBO +U30 +Weather +,2013-01-14 17:55:00,
2013-01-14 11:00:00,14.3,3.3,-100.00,SW,220,11.9,18.1,61,0.00,,,-99.99,392.0,HOBO +U30 +Weather +,2013-01-14 18:00:00,
2013-01-14 11:05:00,14.5,3.3,-100.00,SW,220,9.6,19.7,60,0.00,,,-99.99,373.0,HOBO +U30 +Weather +,2013-01-14 18:05:00,
2013-01-14 11:10:00,15.0,3.8,-100.00,SW,218,11.2,18.6,60,0.00,,,-99.99,373.0,HOBO +U30 +Weather +,2013-01-14 18:10:00,
2013-01-14 11:15:00,14.7,3.6,-100.00,SW,226,11.2,17.4,60,0.00,,,-99.99,373.0,HOBO +U30 +Weather +,2013-01-14 18:15:00,
2013-01-14 11:20:00,15.2,3.9,-100.00,SW,219,11.2,16.3,60,0.00,,,-99.99,399.0,HOBO +U30 +Weather +,2013-01-14 18:20:00,
2013-01-14 11:25:00,15.6,3.9,-100.00,SW,219,9.6,15.9,59,0.00,,,-99.99,388.0,HOBO +U30 +Weather +,2013-01-14 18:25:00,
2013-01-14 11:30:00,15.1,3.3,-100.00,WSW,239,13.4,20.8,59,0.00,,,-99.99,402.0,HOBO +U30 +Weather +,2013-01-14 18:30:00,
2013-01-14 11:35:00,16.0,3.8,-100.00,SW,233,8.9,18.6,58,0.00,,,-99.99,408.0,HOBO +U30 +Weather +,2013-01-14 18:35:00,
2013-01-14 11:40:00,16.0,3.7,-100.00,SW,234,9.6,15.2,57,0.00,,,-99.99,392.0,HOBO +U30 +Weather +,2013-01-14 18:40:00,
2013-01-14 11:45:00,16.1,3.9,-100.00,WSW,241,11.9,21.9,58,0.00,,,-99.99,402.0,HOBO +U30 +Weather +,2013-01-14 18:45:00,
2013-01-14 11:50:00,16.0,3.4,-100.00,WSW,237,14.5,24.2,56,0.00,,,-99.99,408.0,HOBO +U30 +Weather +,2013-01-14 18:50:00,
2013-01-14 11:55:00,15.9,3.0,-100.00,WSW,237,15.9,25.3,56,0.00,,,-99.99,373.0,HOBO +U30 +Weather +,2013-01-14 18:55:00,
2013-01-14 12:00:00,16.3,3.2,-100.00,SW,233,10.7,22.6,55,0.00,,,-99.99,406.0,HOBO +U30 +Weather +,2013-01-14 19:00:00,
2013-01-14 12:05:00,16.8,3.5,-100.00,WSW,239,11.9,20.4,55,0.00,,,-99.99,433.0,HOBO +U30 +Weather +,2013-01-14 19:05:00,
2013-01-14 12:10:00,16.7,3.1,-100.00,SW,225,11.9,21.5,54,0.00,,,-99.99,357.0,HOBO +U30 +Weather +,2013-01-14 19:10:00,
2013-01-14 12:15:00,17.4,3.8,-100.00,SW,222,11.9,19.2,54,0.00,,,-99.99,342.0,HOBO +U30 +Weather +,2013-01-14 19:15:00,
2013-01-14 12:20:00,17.0,3.2,-100.00,SW,227,11.2,21.9,54,0.00,,,-99.99,349.0,HOBO +U30 +Weather +,2013-01-14 19:20:00,
2013-01-14 12:25:00,17.2,3.0,-100.00,SW,226,9.6,16.3,53,0.00,,,-99.99,374.0,HOBO +U30 +Weather +,2013-01-14 19:25:00,
2013-01-14 12:30:00,17.0,2.6,-100.00,WSW,237,12.3,19.2,52,0.00,,,-99.99,407.0,HOBO +U30 +Weather +,2013-01-14 19:30:00,
2013-01-14 12:35:00,17.5,3.3,-100.00,SW,234,10.7,17.4,53,0.00,,,-99.99,398.0,HOBO +U30 +Weather +,2013-01-14 19:35:00,
2013-01-14 12:40:00,17.5,3.3,-100.00,SW,229,12.3,22.6,53,0.00,,,-99.99,318.0,HOBO +U30 +Weather +,2013-01-14 19:40:00,
2013-01-14 12:45:00,18.0,3.6,-100.00,SW,227,9.6,19.2,52,0.00,,,-99.99,376.0,HOBO +U30 +Weather +,2013-01-14 19:45:00,
2013-01-14 12:50:00,18.2,4.1,-100.00,SW,227,11.2,20.4,53,0.00,,,-99.99,348.0,HOBO +U30 +Weather +,2013-01-14 19:50:00,
2013-01-14 12:55:00,18.0,3.6,-100.00,SW,225,12.3,21.5,52,0.00,,,-99.99,317.0,HOBO +U30 +Weather +,2013-01-14 19:55:00,
2013-01-14 13:00:00,18.3,4.0,-100.00,SW,226,10.1,17.4,52,0.00,,,-99.99,334.0,HOBO +U30 +Weather +,2013-01-14 20:00:00,
2013-01-14 13:05:00,18.0,3.5,-100.00,SW,219,15.9,24.2,52,0.00,,,-99.99,311.0,HOBO +U30 +Weather +,2013-01-14 20:05:00,
2013-01-14 13:10:00,18.5,4.6,-100.00,SW,225,13.0,20.8,53,0.00,,,-99.99,289.0,HOBO +U30 +Weather +,2013-01-14 20:10:00,
2013-01-14 13:15:00,18.1,3.8,-100.00,SW,225,12.3,21.9,52,0.00,,,-99.99,272.0,HOBO +U30 +Weather +,2013-01-14 20:15:00,
2013-01-14 13:20:00,18.5,4.4,-100.00,SW,225,10.7,18.6,53,0.00,,,-99.99,281.0,HOBO +U30 +Weather +,2013-01-14 20:20:00,
2013-01-14 13:25:00,17.8,3.4,-100.00,SW,227,13.4,21.9,52,0.00,,,-99.99,234.0,HOBO +U30 +Weather +,2013-01-14 20:25:00,
2013-01-14 13:30:00,18.4,4.1,-100.00,SW,223,11.2,20.4,53,0.00,,,-99.99,243.0,HOBO +U30 +Weather +,2013-01-14 20:30:00,
2013-01-14 13:35:00,18.6,4.3,-100.00,SW,230,7.8,14.5,52,0.00,,,-99.99,233.0,HOBO +U30 +Weather +,2013-01-14 20:35:00,
2013-01-14 13:40:00,18.6,4.4,-100.00,SW,232,9.6,19.2,53,0.00,,,-99.99,224.0,HOBO +U30 +Weather +,2013-01-14 20:40:00,
2013-01-14 13:45:00,18.1,3.9,-100.00,SW,236,11.9,21.5,53,0.00,,,-99.99,219.0,HOBO +U30 +Weather +,2013-01-14 20:45:00,
2013-01-14 13:50:00,18.2,4.0,-100.00,SW,234,10.7,17.0,53,0.00,,,-99.99,241.0,HOBO +U30 +Weather +,2013-01-14 20:50:00,
2013-01-14 13:55:00,18.2,3.9,-100.00,SW,236,10.1,17.4,52,0.00,,,-99.99,217.0,HOBO +U30 +Weather +,2013-01-14 20:55:00,
2013-01-14 14:00:00,18.3,3.8,-100.00,WSW,244,10.1,18.1,52,0.00,,,-99.99,177.0,HOBO +U30 +Weather +,2013-01-14 21:00:00,
2013-01-14 14:05:00,18.3,4.0,-100.00,WSW,241,8.9,16.3,53,0.00,,,-99.99,153.0,HOBO +U30 +Weather +,2013-01-14 21:05:00,
2013-01-14 14:10:00,18.2,4.0,-100.00,WSW,239,8.9,18.1,53,0.00,,,-99.99,156.0,HOBO +U30 +Weather +,2013-01-14 21:10:00,
2013-01-14 14:15:00,18.0,3.7,-100.00,WSW,244,9.6,16.3,52,0.00,,,-99.99,178.0,HOBO +U30 +Weather +,2013-01-14 21:15:00,
2013-01-14 14:20:00,18.4,4.7,-100.00,SW,232,7.8,16.3,54,0.00,,,-99.99,184.0,HOBO +U30 +Weather +,2013-01-14 21:20:00,
2013-01-14 14:25:00,18.2,4.3,-100.00,SW,233,6.7,12.3,53,0.00,,,-99.99,178.0,HOBO +U30 +Weather +,2013-01-14 21:25:00,
2013-01-14 14:30:00,18.5,4.7,-100.00,SW,230,7.4,12.3,54,0.00,,,-99.99,181.0,HOBO +U30 +Weather +,2013-01-14 21:30:00,
2013-01-14 14:35:00,18.2,4.6,-100.00,SW,227,10.7,19.2,54,0.00,,,-99.99,167.0,HOBO +U30 +Weather +,2013-01-14 21:35:00,
2013-01-14 14:40:00,18.2,4.6,-100.00,SW,236,10.1,18.1,54,0.00,,,-99.99,203.0,HOBO +U30 +Weather +,2013-01-14 21:40:00,
2013-01-14 14:45:00,18.6,5.0,-100.00,WSW,246,8.9,17.0,54,0.00,,,-99.99,202.0,HOBO +U30 +Weather +,2013-01-14 21:45:00,
2013-01-14 14:50:00,18.5,4.7,-100.00,WSW,244,9.6,15.9,54,0.00,,,-99.99,179.0,HOBO +U30 +Weather +,2013-01-14 21:50:00,
2013-01-14 14:55:00,18.5,4.8,-100.00,SW,233,8.9,14.1,54,0.00,,,-99.99,172.0,HOBO +U30 +Weather +,2013-01-14 21:55:00,
2013-01-14 15:00:00,18.2,4.6,-100.00,WSW,243,10.1,15.9,54,0.00,,,-99.99,178.0,HOBO +U30 +Weather +,2013-01-14 22:00:00,
2013-01-14 15:05:00,18.7,5.1,-100.00,SW,232,7.4,16.3,54,0.00,,,-99.99,163.0,HOBO +U30 +Weather +,2013-01-14 22:05:00,
2013-01-14 15:10:00,18.3,4.3,-100.00,WSW,240,7.8,14.1,53,0.00,,,-99.99,158.0,HOBO +U30 +Weather +,2013-01-14 22:10:00,
2013-01-14 15:15:00,18.4,4.5,-100.00,WSW,241,7.8,13.0,53,0.00,,,-99.99,148.0,HOBO +U30 +Weather +,2013-01-14 22:15:00,
2013-01-14 15:20:00,18.6,4.7,-100.00,SW,236,8.9,17.0,54,0.00,,,-99.99,176.0,HOBO +U30 +Weather +,2013-01-14 22:20:00,
2013-01-14 15:25:00,18.5,4.6,-100.00,WSW,247,8.9,12.3,53,0.00,,,-99.99,146.0,HOBO +U30 +Weather +,2013-01-14 22:25:00,
2013-01-14 15:30:00,18.6,4.7,-100.00,WSW,240,9.6,16.3,54,0.00,,,-99.99,143.0,HOBO +U30 +Weather +,2013-01-14 22:30:00,
2013-01-14 15:35:00,18.7,4.6,-100.00,WSW,240,7.8,16.3,53,0.00,,,-99.99,173.0,HOBO +U30 +Weather +,2013-01-14 22:35:00,
2013-01-14 15:40:00,19.0,4.9,-100.00,SW,236,8.5,15.9,53,0.00,,,-99.99,164.0,HOBO +U30 +Weather +,2013-01-14 22:40:00,
2013-01-14 15:45:00,18.7,4.7,-100.00,WSW,241,8.5,15.2,53,0.00,,,-99.99,113.0,HOBO +U30 +Weather +,2013-01-14 22:45:00,
2013-01-14 15:50:00,18.1,4.4,-100.00,WSW,240,9.6,15.9,54,0.00,,,-99.99,68.0,HOBO +U30 +Weather +,2013-01-14 22:50:00,
2013-01-14 15:55:00,18.0,4.3,-100.00,SW,233,8.5,16.3,54,0.00,,,-99.99,64.0,HOBO +U30 +Weather +,2013-01-14 22:55:00,
2013-01-14 16:00:00,18.1,4.7,-100.00,WSW,237,9.6,15.9,55,0.00,,,-99.99,64.0,HOBO +U30 +Weather +,2013-01-14 23:00:00,
2013-01-14 16:05:00,17.9,4.6,-100.00,SW,230,8.9,18.1,55,0.00,,,-99.99,56.0,HOBO +U30 +Weather +,2013-01-14 23:05:00,
2013-01-14 16:10:00,17.8,4.6,-100.00,WSW,239,8.9,14.1,55,0.00,,,-99.99,46.0,HOBO +U30 +Weather +,2013-01-14 23:10:00,
2013-01-14 16:15:00,17.7,4.5,-100.00,SW,225,8.5,14.1,55,0.00,,,-99.99,38.0,HOBO +U30 +Weather +,2013-01-14 23:15:00,
2013-01-14 16:20:00,17.6,4.6,-100.00,SW,230,6.7,15.2,56,0.00,,,-99.99,33.0,HOBO +U30 +Weather +,2013-01-14 23:20:00,
2013-01-14 16:25:00,17.4,4.2,-100.00,SW,232,9.6,15.9,55,0.00,,,-99.99,24.0,HOBO +U30 +Weather +,2013-01-14 23:25:00,
2013-01-14 16:30:00,17.3,4.1,-100.00,SW,227,10.1,17.0,55,0.00,,,-99.99,18.0,HOBO +U30 +Weather +,2013-01-14 23:30:00,
2013-01-14 16:35:00,17.4,4.4,-100.00,SW,226,9.6,14.5,56,0.00,,,-99.99,9.0,HOBO +U30 +Weather +,2013-01-14 23:35:00,
2013-01-14 16:40:00,17.3,4.2,-100.00,SW,227,7.4,13.4,55,0.00,,,-99.99,7.0,HOBO +U30 +Weather +,2013-01-14 23:40:00,
2013-01-14 16:45:00,17.1,4.0,-100.00,SW,227,9.6,17.0,55,0.00,,,-99.99,3.0,HOBO +U30 +Weather +,2013-01-14 23:45:00,
2013-01-14 16:50:00,17.2,4.4,-100.00,SW,223,8.9,13.4,56,0.00,,,-99.99,2.0,HOBO +U30 +Weather +,2013-01-14 23:50:00,
2013-01-14 16:55:00,17.1,4.2,-100.00,SW,222,10.1,17.0,56,0.00,,,-99.99,1.0,HOBO +U30 +Weather +,2013-01-14 23:55:00,
2013-01-14 17:00:00,17.0,4.1,-100.00,SW,218,10.1,17.0,56,0.00,,,-99.99,1.0,HOBO +U30 +Weather +,2013-01-15 00:00:00,
2013-01-14 17:05:00,17.0,4.2,-100.00,SW,223,9.6,14.5,56,0.00,,,-99.99,1.0,HOBO +U30 +Weather +,2013-01-15 00:05:00,
2013-01-14 17:10:00,16.8,4.0,-100.00,SW,219,10.1,17.0,56,0.00,,,-99.99,1.0,HOBO +U30 +Weather +,2013-01-15 00:10:00,
2013-01-14 17:15:00,16.8,4.3,-100.00,SW,215,11.9,17.4,57,0.00,,,-99.99,1.0,HOBO +U30 +Weather +,2013-01-15 00:15:00,
2013-01-14 17:20:00,16.8,4.6,-100.00,SW,223,7.4,13.4,58,0.00,,,-99.99,1.0,HOBO +U30 +Weather +,2013-01-15 00:20:00,
2013-01-14 17:25:00,16.6,4.3,-100.00,SW,227,7.4,13.0,57,0.00,,,-99.99,1.0,HOBO +U30 +Weather +,2013-01-15 00:25:00,
2013-01-14 17:30:00,16.5,4.0,-100.00,SW,219,9.6,17.0,57,0.00,,,-99.99,1.0,HOBO +U30 +Weather +,2013-01-15 00:30:00,
2013-01-14 17:35:00,16.5,4.1,-100.00,SW,216,9.6,18.6,57,0.00,,,-99.99,1.0,HOBO +U30 +Weather +,2013-01-15 00:35:00,
2013-01-14 17:40:00,16.5,4.0,-100.00,SW,216,8.9,15.9,57,0.00,,,-99.99,1.0,HOBO +U30 +Weather +,2013-01-15 00:40:00,
2013-01-14 17:45:00,16.5,3.9,-100.00,SW,215,10.7,19.7,57,0.00,,,-99.99,1.0,HOBO +U30 +Weather +,2013-01-15 00:45:00,
2013-01-14 17:50:00,16.5,3.8,-100.00,SSW,213,11.2,19.7,56,0.00,,,-99.99,1.0,HOBO +U30 +Weather +,2013-01-15 00:50:00,
2013-01-14 17:55:00,16.3,3.7,-100.00,SW,219,10.7,18.6,56,0.00,,,-99.99,1.0,HOBO +U30 +Weather +,2013-01-15 00:55:00,
2013-01-14 18:00:00,16.2,3.5,-100.00,SW,222,11.9,18.6,56,0.00,,,-99.99,1.0,HOBO +U30 +Weather +,2013-01-15 01:00:00,
2013-01-14 18:05:00,16.1,3.6,-100.00,SW,220,11.9,18.1,57,0.00,,,-99.99,1.0,HOBO +U30 +Weather +,2013-01-15 01:05:00,
2013-01-14 18:10:00,16.2,3.6,-100.00,SW,220,11.2,18.6,56,0.00,,,-99.99,1.0,HOBO +U30 +Weather +,2013-01-15 01:10:00,
2013-01-14 18:15:00,16.3,3.8,-100.00,SW,222,8.5,15.9,57,0.00,,,-99.99,1.0,HOBO +U30 +Weather +,2013-01-15 01:15:00,
2013-01-14 18:20:00,16.1,3.5,-100.00,SW,223,9.6,14.5,56,0.00,,,-99.99,1.0,HOBO +U30 +Weather +,2013-01-15 01:20:00,
2013-01-14 18:25:00,16.1,3.3,-100.00,SW,222,11.2,19.2,56,0.00,,,-99.99,1.0,HOBO +U30 +Weather +,2013-01-15 01:25:00,
2013-01-14 18:30:00,16.2,3.5,-100.00,SW,219,11.9,18.6,56,0.00,,,-99.99,1.0,HOBO +U30 +Weather +,2013-01-15 01:30:00,
2013-01-14 18:35:00,16.1,3.4,-100.00,SW,229,8.9,14.1,56,0.00,,,-99.99,1.0,HOBO +U30 +Weather +,2013-01-15 01:35:00,
2013-01-14 18:40:00,16.1,3.5,-100.00,SW,219,10.1,18.1,57,0.00,,,-99.99,1.0,HOBO +U30 +Weather +,2013-01-15 01:40:00,
2013-01-14 18:45:00,16.2,3.6,-100.00,SW,223,9.6,17.4,57,0.00,,,-99.99,1.0,HOBO +U30 +Weather +,2013-01-15 01:45:00,
2013-01-14 18:50:00,16.2,3.5,-100.00,SW,222,12.3,23.0,56,0.00,,,-99.99,1.0,HOBO +U30 +Weather +,2013-01-15 01:50:00,
2013-01-14 18:55:00,16.2,3.7,-100.00,SW,219,11.9,19.2,57,0.00,,,-99.99,1.0,HOBO +U30 +Weather +,2013-01-15 01:55:00,
2013-01-14 19:00:00,16.2,3.9,-100.00,SW,225,10.1,18.1,57,0.00,,,-99.99,1.0,HOBO +U30 +Weather +,2013-01-15 02:00:00,
2013-01-14 19:05:00,16.2,3.8,-100.00,SW,223,10.7,16.3,57,0.00,,,-99.99,1.0,HOBO +U30 +Weather +,2013-01-15 02:05:00,
2013-01-14 19:10:00,16.2,3.6,-100.00,SW,226,11.2,19.7,56,0.00,,,-99.99,1.0,HOBO +U30 +Weather +,2013-01-15 02:10:00,
2013-01-14 19:15:00,16.2,3.6,-100.00,SW,223,11.2,17.4,56,0.00,,,-99.99,1.0,HOBO +U30 +Weather +,2013-01-15 02:15:00,
2013-01-14 19:20:00,16.1,3.3,-100.00,SW,219,14.1,21.5,56,0.00,,,-99.99,1.0,HOBO +U30 +Weather +,2013-01-15 02:20:00,
2013-01-14 19:25:00,16.0,3.2,-100.00,SW,219,13.0,21.9,56,0.00,,,-99.99,1.0,HOBO +U30 +Weather +,2013-01-15 02:25:00,
2013-01-14 19:30:00,16.0,3.3,-100.00,SW,225,12.3,18.1,56,0.00,,,-99.99,1.0,HOBO +U30 +Weather +,2013-01-15 02:30:00,
2013-01-14 19:35:00,16.0,3.2,-100.00,SW,225,11.9,21.5,56,0.00,,,-99.99,1.0,HOBO +U30 +Weather +,2013-01-15 02:35:00,
2013-01-14 19:40:00,16.1,3.3,-100.00,SW,220,11.9,18.6,56,0.00,,,-99.99,1.0,HOBO +U30 +Weather +,2013-01-15 02:40:00,
2013-01-14 19:45:00,16.1,3.2,-100.00,SW,219,13.0,21.9,56,0.00,,,-99.99,1.0,HOBO +U30 +Weather +,2013-01-15 02:45:00,
2013-01-14 19:50:00,16.2,3.5,-100.00,SW,215,12.3,18.1,56,0.00,,,-99.99,1.0,HOBO +U30 +Weather +,2013-01-15 02:50:00,
2013-01-14 19:55:00,16.5,3.6,-100.00,SW,216,10.1,16.3,56,0.00,,,-99.99,1.0,HOBO +U30 +Weather +,2013-01-15 02:55:00,
2013-01-14 20:00:00,16.6,3.5,-100.00,SW,225,11.9,20.8,55,0.00,,,-99.99,1.0,HOBO +U30 +Weather +,2013-01-15 03:00:00,
2013-01-14 20:05:00,16.6,3.7,-100.00,SW,218,11.2,18.1,55,0.00,,,-99.99,1.0,HOBO +U30 +Weather +,2013-01-15 03:05:00,
2013-01-14 20:10:00,16.6,3.9,-100.00,SW,222,9.6,14.5,56,0.00,,,-99.99,1.0,HOBO +U30 +Weather +,2013-01-15 03:10:00,
2013-01-14 20:15:00,16.8,4.0,-100.00,SW,220,10.7,18.1,56,0.00,,,-99.99,1.0,HOBO +U30 +Weather +,2013-01-15 03:15:00,
2013-01-14 20:20:00,16.8,3.8,-100.00,SW,216,13.0,19.7,55,0.00,,,-99.99,1.0,HOBO +U30 +Weather +,2013-01-15 03:20:00,
2013-01-14 20:25:00,17.0,4.0,-100.00,SW,216,11.9,19.7,56,0.00,,,-99.99,1.0,HOBO +U30 +Weather +,2013-01-15 03:25:00,
2013-01-14 20:30:00,17.1,4.0,-100.00,SSW,213,11.9,20.4,55,0.00,,,-99.99,1.0,HOBO +U30 +Weather +,2013-01-15 03:30:00,
2013-01-14 20:35:00,17.1,4.3,-100.00,SW,215,9.6,15.2,56,0.00,,,-99.99,1.0,HOBO +U30 +Weather +,2013-01-15 03:35:00,
2013-01-14 20:40:00,17.2,4.4,-100.00,SSW,211,11.2,16.3,56,0.00,,,-99.99,1.0,HOBO +U30 +Weather +,2013-01-15 03:40:00,
2013-01-14 20:45:00,17.3,4.3,-100.00,SW,220,10.1,17.0,56,0.00,,,-99.99,1.0,HOBO +U30 +Weather +,2013-01-15 03:45:00,
2013-01-14 20:50:00,17.4,4.4,-100.00,SW,220,11.9,18.1,55,0.00,,,-99.99,1.0,HOBO +U30 +Weather +,2013-01-15 03:50:00,
2013-01-14 20:55:00,17.5,4.4,-100.00,SW,218,13.4,20.8,55,0.00,,,-99.99,1.0,HOBO +U30 +Weather +,2013-01-15 03:55:00,
2013-01-14 21:00:00,17.6,4.4,-100.00,SW,219,11.2,17.4,55,0.00,,,-99.99,1.0,HOBO +U30 +Weather +,2013-01-15 04:00:00,
2013-01-14 21:05:00,17.7,4.6,-100.00,SW,220,9.6,19.2,55,0.00,,,-99.99,1.0,HOBO +U30 +Weather +,2013-01-15 04:05:00,
2013-01-14 21:10:00,17.8,4.8,-100.00,SW,220,10.1,15.2,55,0.00,,,-99.99,1.0,HOBO +U30 +Weather +,2013-01-15 04:10:00,
2013-01-14 21:15:00,17.6,4.3,-100.00,SW,223,13.0,23.0,55,0.00,,,-99.99,1.0,HOBO +U30 +Weather +,2013-01-15 04:15:00,
2013-01-14 21:20:00,17.5,4.4,-100.00,SW,219,13.4,21.9,55,0.00,,,-99.99,1.0,HOBO +U30 +Weather +,2013-01-15 04:20:00,
2013-01-14 21:25:00,17.5,4.3,-100.00,SW,220,14.5,24.2,55,0.00,,,-99.99,1.0,HOBO +U30 +Weather +,2013-01-15 04:25:00,
2013-01-14 21:30:00,17.5,4.5,-100.00,SW,219,13.0,22.6,55,0.00,,,-99.99,1.0,HOBO +U30 +Weather +,2013-01-15 04:30:00,
2013-01-14 21:35:00,17.5,4.4,-100.00,SW,222,12.3,24.8,55,0.00,,,-99.99,1.0,HOBO +U30 +Weather +,2013-01-15 04:35:00,
2013-01-14 21:40:00,17.5,4.6,-100.00,SW,223,11.2,23.0,56,0.00,,,-99.99,1.0,HOBO +U30 +Weather +,2013-01-15 04:40:00,
2013-01-14 21:45:00,17.3,4.5,-100.00,SW,222,13.4,18.6,56,0.00,,,-99.99,1.0,HOBO +U30 +Weather +,2013-01-15 04:45:00,
2013-01-14 21:50:00,17.4,4.7,-100.00,SW,225,12.3,20.4,56,0.00,,,-99.99,1.0,HOBO +U30 +Weather +,2013-01-15 04:50:00,
2013-01-14 21:55:00,17.4,4.7,-100.00,SW,223,12.3,21.9,57,0.00,,,-99.99,1.0,HOBO +U30 +Weather +,2013-01-15 04:55:00,
2013-01-14 22:00:00,17.4,4.9,-100.00,SW,225,11.9,20.8,57,0.00,,,-99.99,1.0,HOBO +U30 +Weather +,2013-01-15 05:00:00,
2013-01-14 22:05:00,17.4,5.0,-100.00,SW,225,12.3,20.8,57,0.00,,,-99.99,1.0,HOBO +U30 +Weather +,2013-01-15 05:05:00,
2013-01-14 22:10:00,17.5,5.1,-100.00,SW,234,9.6,18.1,57,0.00,,,-99.99,1.0,HOBO +U30 +Weather +,2013-01-15 05:10:00,
2013-01-14 22:15:00,17.6,5.1,-100.00,SW,226,11.9,20.8,57,0.00,,,-99.99,1.0,HOBO +U30 +Weather +,2013-01-15 05:15:00,
2013-01-14 22:20:00,17.7,5.2,-100.00,SW,236,11.9,21.9,57,0.00,,,-99.99,1.0,HOBO +U30 +Weather +,2013-01-15 05:20:00,
2013-01-14 22:25:00,17.8,5.1,-100.00,SW,233,11.9,20.8,56,0.00,,,-99.99,1.0,HOBO +U30 +Weather +,2013-01-15 05:25:00,
2013-01-14 22:30:00,17.8,5.3,-100.00,SW,227,10.1,16.3,57,0.00,,,-99.99,1.0,HOBO +U30 +Weather +,2013-01-15 05:30:00,
2013-01-14 22:35:00,17.8,5.0,-100.00,SW,230,13.0,20.8,56,0.00,,,-99.99,1.0,HOBO +U30 +Weather +,2013-01-15 05:35:00,
2013-01-14 22:40:00,17.8,5.2,-100.00,SW,232,12.3,21.5,57,0.00,,,-99.99,1.0,HOBO +U30 +Weather +,2013-01-15 05:40:00,
2013-01-14 22:45:00,17.7,5.2,-100.00,SW,230,11.9,21.5,57,0.00,,,-99.99,1.0,HOBO +U30 +Weather +,2013-01-15 05:45:00,
2013-01-14 22:50:00,17.7,5.4,-100.00,SW,223,12.3,17.4,57,0.00,,,-99.99,1.0,HOBO +U30 +Weather +,2013-01-15 05:50:00,
2013-01-14 22:55:00,17.9,5.6,-100.00,SW,232,10.1,17.0,58,0.00,,,-99.99,1.0,HOBO +U30 +Weather +,2013-01-15 05:55:00,
2013-01-14 23:00:00,18.2,5.9,-100.00,SW,225,11.2,20.4,58,0.00,,,-99.99,1.0,HOBO +U30 +Weather +,2013-01-15 06:00:00,
2013-01-14 23:05:00,18.4,6.1,-100.00,SW,233,9.6,15.9,58,0.00,,,-99.99,1.0,HOBO +U30 +Weather +,2013-01-15 06:05:00,
2013-01-14 23:10:00,18.4,6.1,-100.00,SW,225,10.1,17.4,57,0.00,,,-99.99,1.0,HOBO +U30 +Weather +,2013-01-15 06:10:00,
2013-01-14 23:15:00,18.4,6.2,-100.00,WSW,237,9.6,15.2,58,0.00,,,-99.99,1.0,HOBO +U30 +Weather +,2013-01-15 06:15:00,
2013-01-14 23:20:00,18.2,6.3,-100.00,SW,230,11.9,20.4,59,0.00,,,-99.99,1.0,HOBO +U30 +Weather +,2013-01-15 06:20:00,
2013-01-14 23:25:00,18.3,6.4,-100.00,SW,236,11.2,18.1,59,0.00,,,-99.99,1.0,HOBO +U30 +Weather +,2013-01-15 06:25:00,
2013-01-14 23:30:00,18.3,6.5,-100.00,WSW,237,11.9,18.6,59,0.00,,,-99.99,1.0,HOBO +U30 +Weather +,2013-01-15 06:30:00,
2013-01-14 23:35:00,18.4,6.8,-100.00,SW,225,9.6,17.4,59,0.00,,,-99.99,1.0,HOBO +U30 +Weather +,2013-01-15 06:35:00,
2013-01-14 23:40:00,18.5,7.0,-100.00,SW,220,10.7,18.6,60,0.00,,,-99.99,1.0,HOBO +U30 +Weather +,2013-01-15 06:40:00,
2013-01-14 23:45:00,18.5,7.2,-100.00,SW,223,10.1,17.4,60,0.00,,,-99.99,1.0,HOBO +U30 +Weather +,2013-01-15 06:45:00,
2013-01-14 23:50:00,18.5,7.4,-100.00,SW,227,11.9,18.1,61,0.00,,,-99.99,1.0,HOBO +U30 +Weather +,2013-01-15 06:50:00,
2013-01-14 23:55:00,18.7,7.7,-100.00,SW,226,10.7,20.4,61,0.00,,,-99.99,1.0,HOBO +U30 +Weather +,2013-01-15 06:55:00,